DW1779 Weather Reports


Display with metric or nautical units.
time (UTC)temp
F
wind
direction
speed
MPH
gust
MPH
rain 1hr
in
rain 24hr
in
rain mn
in
humidity
%
barometer
mb
20260905132048 74 146 0.0 0.0 0.00 0.00 0.00 94 1016.6
20260905131556 73 146 0.0 0.0 0.00 0.00 0.00 95 1016.6
20260905131046 72 146 0.0 0.0 0.00 0.00 0.00 95 1016.6
20260905130647 72 146 0.0 0.0 0.00 0.00 0.00 96 1016.5
20260905130050 72 146 0.0 0.0 0.00 0.00 0.00 96 1016.6
20260905125549 71 146 0.0 0.0 0.00 0.00 0.00 96 1016.5
20260905125049 71 146 0.0 0.0 0.00 0.00 0.00 97 1016.5
20260905124548 70 146 0.0 0.0 0.00 0.00 0.00 96 1016.5
20260905124047 70 146 0.0 0.0 0.00 0.00 0.00 97 1016.4
20260905123546 70 146 0.0 0.0 0.00 0.00 0.00 97 1016.4
20260905123104 70 146 0.0 0.0 0.00 0.00 0.00 97 1016.3
20260905122548 70 146 0.0 0.0 0.00 0.00 0.00 97 1016.3
20260905122045 69 146 0.0 0.0 0.00 0.00 0.00 97 1016.3
20260905121544 69 146 0.0 0.0 0.00 0.00 0.00 97 1016.2
20260905121044 69 146 0.0 0.0 0.00 0.00 0.00 96 1016.3
20260905120644 69 146 0.0 0.0 0.00 0.00 0.00 96 1016.2
20260905120042 69 157 0.0 0.0 0.00 0.00 0.00 96 1016.1
20260905115545 69 157 0.0 0.0 0.00 0.00 0.00 96 1016.0
20260905115046 69 157 0.0 0.0 0.00 0.00 0.00 96 1015.8
20260905114544 69 157 0.0 0.0 0.00 0.00 0.00 96 1015.8
20260905114041 69 157 0.0 0.0 0.00 0.00 0.00 96 1015.8
20260905113542 69 159 0.0 0.0 0.00 0.00 0.00 96 1015.8
20260905113040 69 159 0.0 0.0 0.00 0.00 0.00 96 1015.8
20260905112540 69 159 0.0 0.0 0.00 0.00 0.00 96 1015.7
20260905112039 69 159 0.0 1.0 0.00 0.00 0.00 96 1015.6
20260905111539 69 159 0.0 1.0 0.00 0.00 0.00 96 1015.7
20260905111040 69 159 0.0 1.0 0.00 0.00 0.00 96 1015.6
20260905110638 69 159 0.0 1.0 0.00 0.00 0.00 96 1015.7
20260905110053 69 159 0.0 1.0 0.00 0.00 0.00 96 1015.7
20260905105553 70 159 0.0 1.0 0.00 0.00 0.00 96 1015.6
20260905105053 70 159 0.0 0.0 0.00 0.00 0.00 96 1015.7
20260905104553 70 159 0.0 0.0 0.00 0.00 0.00 96 1015.8
20260905104052 70 159 0.0 0.0 0.00 0.00 0.00 96 1015.9
20260905103552 70 159 0.0 0.0 0.00 0.00 0.00 96 1015.8
20260905103058 70 159 0.0 0.0 0.00 0.00 0.00 96 1015.8
20260905102554 70 159 0.0 0.0 0.00 0.00 0.00 96 1015.8
20260905102051 70 159 0.0 0.0 0.00 0.00 0.00 96 1015.9
20260905101550 70 159 0.0 0.0 0.00 0.00 0.00 95 1016.0
20260905101051 70 159 0.0 0.0 0.00 0.00 0.00 95 1015.9
20260905100652 70 159 0.0 0.0 0.00 0.00 0.00 95 1015.9
20260905100056 70 159 0.0 0.0 0.00 0.00 0.00 95 1015.8
20260905095548 70 159 0.0 0.0 0.00 0.00 0.00 95 1015.9
20260905095050 70 159 0.0 0.0 0.00 0.00 0.00 95 1015.9
20260905094548 71 159 0.0 0.0 0.00 0.00 0.00 95 1016.0
20260905094047 71 159 0.0 0.0 0.00 0.00 0.00 95 1015.8
20260905093547 71 159 0.0 0.0 0.00 0.00 0.00 95 1015.8
20260905093047 71 159 0.0 0.0 0.00 0.00 0.00 94 1015.9
20260905092546 71 159 0.0 0.0 0.00 0.00 0.00 94 1015.8
20260905092046 71 159 0.0 0.0 0.00 0.00 0.00 94 1015.8
20260905091552 71 159 0.0 0.0 0.00 0.00 0.00 94 1015.8
20260905091046 71 159 0.0 0.0 0.00 0.00 0.00 94 1015.8
20260905090646 71 159 0.0 0.0 0.00 0.00 0.00 93 1015.8
20260905090043 72 159 0.0 0.0 0.00 0.00 0.00 93 1015.7
20260905085543 72 159 0.0 0.0 0.00 0.00 0.00 93 1015.6
20260905085042 72 159 0.0 0.0 0.00 0.00 0.00 93 1015.5
20260905084548 72 159 0.0 0.0 0.00 0.00 0.00 93 1015.5
20260905084043 72 159 0.0 1.0 0.00 0.00 0.00 93 1015.6
20260905083544 72 159 0.0 1.0 0.00 0.00 0.00 93 1015.5
20260905083041 72 159 0.0 0.0 0.00 0.00 0.00 93 1015.5
20260905082541 72 159 0.0 0.0 0.00 0.00 0.00 92 1015.5
20260905082041 72 159 0.0 1.0 0.00 0.00 0.00 92 1015.5
20260905081541 72 159 0.0 1.0 0.00 0.00 0.00 92 1015.6
20260905081039 73 159 0.0 1.0 0.00 0.00 0.00 92 1015.6
20260905080502 73 159 0.0 1.0 0.00 0.00 0.00 92 1015.6
20260905080139 73 159 0.0 0.0 0.00 0.00 0.00 92 1015.7
20260905075600 73 159 0.0 1.0 0.00 0.00 0.00 92 1015.6
20260905075059 73 159 0.0 1.0 0.00 0.00 0.00 92 1015.5
20260905074603 73 159 0.0 1.0 0.00 0.00 0.00 92 1015.5
20260905074057 73 159 0.0 1.0 0.00 0.00 0.00 92 1015.7
20260905073557 73 159 0.0 1.0 0.00 0.00 0.00 91 1015.5
20260905073057 73 159 0.0 1.0 0.00 0.00 0.00 91 1015.6
20260905072559 73 159 0.0 1.0 0.00 0.00 0.00 91 1015.6
20260905072056 74 159 0.0 1.0 0.00 0.00 0.00 91 1015.7
20260905071602 74 159 0.0 1.0 0.00 0.00 0.00 90 1015.8
20260905071059 74 159 0.0 2.0 0.00 0.00 0.00 90 1015.6
20260905070656 74 156 0.0 2.0 0.00 0.00 0.00 90 1015.7
20260905070057 74 130 0.0 2.0 0.00 0.00 0.00 90 1015.7
20260905065556 74 158 0.0 2.0 0.00 0.00 0.00 90 1015.7
20260905065055 74 190 0.0 2.0 0.00 0.00 0.00 90 1015.9
20260905064600 74 131 0.0 1.0 0.00 0.00 0.00 90 1015.7
20260905064055 74 161 0.0 0.0 0.00 0.00 0.00 91 1015.8
20260905063555 75 161 0.0 0.0 0.00 0.00 0.00 90 1015.8
20260905063054 75 161 0.0 1.0 0.00 0.00 0.00 90 1015.9
20260905062554 75 161 0.0 1.0 0.00 0.00 0.00 90 1015.9
20260905062054 75 163 0.0 2.0 0.00 0.00 0.00 89 1015.9
20260905061558 75 134 0.0 2.0 0.00 0.00 0.00 90 1016.0
20260905061055 75 145 0.0 3.0 0.00 0.00 0.00 90 1016.0
20260905060655 75 128 1.0 3.0 0.00 0.00 0.00 90 1015.9
20260905060100 75 114 0.0 5.0 0.00 0.00 0.00 89 1015.8
20260905055558 75 191 0.0 4.0 0.00 0.00 0.00 89 1015.9
20260905055055 75 138 1.0 5.0 0.00 0.00 0.00 89 1015.9
20260905054557 75 165 1.0 7.0 0.00 0.00 0.00 90 1015.8
20260905054053 75 169 2.0 7.0 0.00 0.00 0.00 90 1015.8
20260905053555 75 148 1.0 5.0 0.00 0.00 0.00 90 1015.9
20260905053107 75 194 1.0 3.0 0.00 0.00 0.00 90 1015.8
20260905052552 75 161 0.0 3.0 0.00 0.00 0.00 90 1015.8
20260905052050 74 182 0.0 3.0 0.00 0.00 0.00 91 1015.9
20260905051555 74 131 0.0 3.0 0.00 0.00 0.00 91 1015.9
20260905051049 74 151 0.0 3.0 0.00 0.00 0.00 91 1015.7
20260905050650 74 138 0.0 4.0 0.00 0.00 0.00 91 1015.8
20260905050046 74 186 0.0 5.0 0.00 0.00 0.00 91 1015.8
20260905045546 74 148 0.0 4.0 0.00 0.00 0.00 91 1015.7
20260905045047 75 206 0.0 2.0 0.00 0.00 0.00 91 1015.7
20260905044548 75 154 0.0 1.0 0.00 0.00 0.00 91 1015.7
20260905044046 75 155 0.0 3.0 0.00 0.00 0.00 92 1015.8
20260905043547 75 175 0.0 3.0 0.00 0.00 0.00 92 1015.7
20260905043104 75 138 0.0 2.0 0.00 0.00 0.00 92 1015.9
20260905042546 75 157 0.0 1.0 0.00 0.00 0.00 92 1015.7
20260905042046 75 143 0.0 1.0 0.00 0.00 0.00 92 1015.7
20260905041546 75 140 0.0 1.0 0.00 0.00 0.00 92 1015.8
20260905041050 75 148 0.0 1.0 0.00 0.00 0.00 92 1015.8
20260905040646 75 135 0.0 3.0 0.00 0.00 0.00 92 1015.8
20260905040048 75 156 1.0 3.0 0.00 0.00 0.00 92 1015.8
20260905035540 75 175 0.0 3.0 0.00 0.00 0.00 92 1015.8
20260905035040 75 176 0.0 2.0 0.00 0.00 0.00 91 1016.1
20260905034542 75 149 0.0 2.0 0.00 0.00 0.00 91 1016.1
20260905034039 75 139 0.0 2.0 0.00 0.00 0.00 91 1015.9
20260905033539 75 198 0.0 2.0 0.00 0.00 0.00 91 1016.0
20260905033039 76 178 0.0 2.0 0.00 0.00 0.00 90 1016.0
20260905032543 76 182 0.0 1.0 0.00 0.00 0.00 90 1016.0
20260905032039 76 182 0.0 1.0 0.00 0.00 0.00 90 1016.0
20260905031542 76 182 0.0 0.0 0.00 0.00 0.00 90 1015.9
20260905031043 76 182 0.0 0.0 0.00 0.00 0.00 90 1016.1
20260905030640 76 182 0.0 1.0 0.00 0.00 0.00 90 1016.0
20260905030100 76 182 0.0 1.0 0.00 0.00 0.00 90 1016.1
20260905025557 76 182 0.0 1.0 0.00 0.00 0.00 90 1016.1
20260905025056 77 166 0.0 1.0 0.00 0.00 0.00 90 1016.0
20260905024556 77 166 0.0 1.0 0.00 0.00 0.00 89 1016.1
20260905024056 77 164 0.0 1.0 0.00 0.00 0.00 89 1016.0
20260905023556 77 164 0.0 1.0 0.00 0.00 0.00 90 1015.9
20260905023056 77 164 0.0 2.0 0.00 0.00 0.00 90 1016.0
20260905022555 77 164 0.0 3.0 0.00 0.00 0.00 89 1015.9
20260905022057 78 194 0.0 3.0 0.00 0.00 0.00 89 1015.8
20260905021555 78 155 0.0 1.0 0.00 0.00 0.00 88 1015.6
20260905021058 78 139 0.0 0.0 0.00 0.00 0.00 88 1015.7
20260905020656 78 139 0.0 0.0 0.00 0.00 0.00 88 1015.6
20260905020054 78 139 0.0 0.0 0.00 0.00 0.00 88 1015.6
20260905015552 78 139 0.0 1.0 0.00 0.00 0.00 87 1015.4
20260905015051 79 140 0.0 1.0 0.00 0.00 0.00 87 1015.4
20260905014550 79 140 0.0 3.0 0.00 0.00 0.00 87 1015.3
20260905014050 79 139 0.0 3.0 0.00 0.00 0.00 86 1015.1
20260905013550 79 137 0.0 0.0 0.00 0.00 0.00 86 1015.0
20260905013050 80 135 0.0 0.0 0.00 0.00 0.00 85 1014.9
20260905012550 80 135 0.0 1.0 0.00 0.00 0.00 84 1014.7
20260905012049 80 135 0.0 1.0 0.00 0.00 0.00 84 1014.7
20260905011611 81 151 0.0 1.0 0.00 0.00 0.00 83 1014.7
20260905011050 81 152 0.0 1.0 0.00 0.00 0.00 82 1014.6
20260905010650 81 142 0.0 2.0 0.00 0.00 0.00 82 1014.5
20260905010047 81 144 0.0 2.0 0.00 0.00 0.00 82 1014.4
20260905005546 81 134 0.0 1.0 0.00 0.00 0.00 82 1014.5
20260905005047 81 124 0.0 3.0 0.00 0.00 0.00 83 1014.4
20260905004547 82 130 1.0 3.0 0.00 0.00 0.00 82 1014.3
20260905004046 82 113 0.0 2.0 0.00 0.00 0.00 81 1014.3
20260905003547 83 148 0.0 2.0 0.00 0.00 0.00 81 1014.3
20260905003053 83 169 0.0 3.0 0.00 0.00 0.00 80 1014.2
20260905002545 83 148 0.0 3.0 0.00 0.00 0.00 81 1014.1
20260905002047 83 136 1.0 3.0 0.00 0.00 0.00 80 1014.1
20260905001555 84 124 1.0 3.0 0.00 0.00 0.00 79 1014.1
20260905001047 84 118 1.0 3.0 0.00 0.00 0.00 78 1014.2
20260905000646 85 117 1.0 3.0 0.00 0.00 0.00 77 1014.1
20260905000104 85 169 0.0 6.0 0.00 0.00 0.00 77 1014.2
20260904235558 85 109 1.0 4.0 0.00 0.00 0.00 76 1014.3
20260904235059 86 144 1.0 6.0 0.00 0.00 0.00 75 1014.1
20260904234559 86 162 1.0 6.0 0.00 0.00 0.00 74 1014.3
20260904234100 87 121 1.0 6.0 0.00 0.00 0.00 73 1014.2
20260904233603 87 151 2.0 8.0 0.00 0.00 0.00 73 1014.3
20260904233107 87 134 1.0 8.0 0.00 0.00 0.00 72 1014.3
20260904232559 88 156 2.0 7.0 0.00 0.00 0.00 69 1014.3
20260904232101 89 103 1.0 8.0 0.00 0.00 0.00 68 1014.3
20260904231559 90 146 2.0 8.0 0.00 0.00 0.00 65 1014.3
20260904231058 90 128 1.0 7.0 0.00 0.00 0.00 65 1014.4
20260904230658 91 76 2.0 8.0 0.00 0.00 0.00 64 1014.2
20260904230056 91 338 2.0 8.0 0.00 0.00 0.00 64 1014.2
20260904225556 92 36 1.0 9.0 0.00 0.00 0.00 63 1014.1
20260904225056 91 100 3.0 9.0 0.00 0.00 0.00 63 1014.2
20260904224555 91 101 3.0 7.0 0.00 0.00 0.00 63 1014.2
20260904224055 91 92 2.0 10.0 0.00 0.00 0.00 64 1014.2
20260904223555 91 121 3.0 10.0 0.00 0.00 0.00 64 1014.2
20260904223057 91 355 2.0 9.0 0.00 0.00 0.00 64 1014.4
20260904222554 90 74 3.0 9.0 0.00 0.00 0.00 62 1014.2
20260904222055 89 112 2.0 7.0 0.00 0.00 0.00 67 1014.4
20260904221555 88 96 2.0 7.0 0.00 0.00 0.00 68 1014.4
20260904221054 89 105 1.0 6.0 0.00 0.00 0.00 67 1014.3
20260904220654 89 145 1.0 4.0 0.00 0.00 0.00 65 1014.4
20260904220105 90 121 1.0 6.0 0.00 0.00 0.00 65 1014.4
20260904215551 91 136 1.0 5.0 0.00 0.00 0.00 63 1014.5
20260904215051 93 136 2.0 7.0 0.00 0.00 0.00 55 1014.6
20260904214551 93 61 2.0 7.0 0.00 0.00 0.00 55 1014.5
20260904214054 93 116 2.0 7.0 0.00 0.00 0.00 54 1014.6
20260904213551 94 118 2.0 9.0 0.00 0.00 0.00 58 1014.6
20260904213052 94 119 2.0 9.0 0.00 0.00 0.00 55 1014.5
20260904212553 93 90 2.0 9.0 0.00 0.00 0.00 58 1014.7
20260904212049 94 142 3.0 8.0 0.00 0.00 0.00 55 1014.8
20260904211549 94 117 2.0 8.0 0.00 0.00 0.00 55 1014.7
20260904211049 94 343 2.0 8.0 0.00 0.00 0.00 54 1014.8
20260904210651 95 66 2.0 7.0 0.00 0.00 0.00 52 1014.9
20260904210055 96 160 0.0 7.0 0.00 0.00 0.00 52 1014.9
20260904205553 96 140 2.0 8.0 0.00 0.00 0.00 51 1015.0
20260904205048 97 122 2.0 8.0 0.00 0.00 0.00 50 1014.9
20260904204548 96 148 2.0 11.0 0.00 0.00 0.00 52 1015.1
20260904204048 96 69 3.0 11.0 0.00 0.00 0.00 50 1015.1
20260904203547 96 66 6.0 10.0 0.00 0.00 0.00 51 1015.1
20260904203049 96 141 4.0 8.0 0.00 0.00 0.00 50 1015.2
20260904202546 93 65 1.0 6.0 0.00 0.00 0.00 54 1015.3
20260904202045 93 173 2.0 8.0 0.00 0.00 0.00 54 1015.4
20260904201600 94 130 2.0 8.0 0.00 0.00 0.00 52 1015.3
20260904201045 94 100 1.0 7.0 0.00 0.00 0.00 53 1015.4
20260904200647 94 149 2.0 7.0 0.00 0.00 0.00 53 1015.5
20260904200049 95 99 1.0 10.0 0.00 0.00 0.00 51 1015.5
20260904195543 96 119 4.0 10.0 0.00 0.00 0.00 50 1015.6
20260904195045 98 115 1.0 6.0 0.00 0.00 0.00 50 1015.6
20260904194542 98 87 2.0 11.0 0.00 0.00 0.00 52 1015.7
20260904194041 98 153 4.0 12.0 0.00 0.00 0.00 50 1015.8
20260904193541 97 155 4.0 12.0 0.00 0.00 0.00 50 1015.9
20260904193042 97 72 3.0 11.0 0.00 0.00 0.00 49 1015.9
20260904192540 94 78 2.0 6.0 0.00 0.00 0.00 54 1016.0
20260904192040 93 5 1.0 3.0 0.00 0.00 0.00 62 1016.1
20260904191541 94 355 1.0 3.0 0.00 0.00 0.00 54 1016.2
20260904191040 94 15 1.0 3.0 0.00 0.00 0.00 57 1016.2
20260904190640 93 321 1.0 2.0 0.00 0.00 0.00 59 1016.3
20260904190059 91 15 0.0 3.0 0.00 0.00 0.00 59 1016.3
20260904185558 91 345 2.0 3.0 0.00 0.00 0.00 57 1016.3
20260904185101 93 67 0.0 3.0 0.00 0.00 0.00 56 1016.3
20260904184558 94 93 1.0 5.0 0.00 0.00 0.00 53 1016.4
20260904184058 96 51 2.0 5.0 0.00 0.00 0.00 51 1016.4
20260904183558 97 319 1.0 5.0 0.00 0.00 0.00 49 1016.4
20260904183102 96 294 2.0 5.0 0.00 0.00 0.00 48 1016.6
20260904182556 97 318 0.0 8.0 0.00 0.00 0.00 52 1016.5
20260904182056 96 296 3.0 8.0 0.00 0.00 0.00 49 1016.5
20260904181559 94 47 2.0 4.0 0.00 0.00 0.00 56 1016.7
20260904181100 93 337 1.0 3.0 0.00 0.00 0.00 58 1016.6
20260904180656 91 22 2.0 3.0 0.00 0.00 0.00 55 1016.6
20260904180103 92 28 0.0 2.0 0.00 0.00 0.00 59 1016.8
20260904175555 92 9 1.0 2.0 0.00 0.00 0.00 58 1016.9
20260904175055 90 355 0.0 2.0 0.00 0.00 0.00 62 1016.9
20260904174602 91 355 0.0 4.0 0.00 0.00 0.00 61 1017.0
20260904174054 93 9 0.0 4.0 0.00 0.00 0.00 58 1017.1
20260904173554 94 297 2.0 4.0 0.00 0.00 0.00 52 1016.9
20260904173115 93 342 1.0 5.0 0.00 0.00 0.00 56 1017.1
20260904172555 95 317 1.0 5.0 0.00 0.00 0.00 51 1017.2
20260904172055 94 317 1.0 4.0 0.00 0.00 0.00 52 1017.2
20260904171601 90 80 0.0 3.0 0.00 0.00 0.00 63 1017.2
20260904171053 91 195 0.0 3.0 0.00 0.00 0.00 61 1017.4
20260904170654 90 313 0.0 6.0 0.00 0.00 0.00 59 1017.5
20260904170105 93 44 1.0 6.0 0.00 0.00 0.00 52 1017.6
20260904165555 95 43 1.0 7.0 0.00 0.00 0.00 49 1017.5
20260904165056 95 267 2.0 9.0 0.00 0.00 0.00 49 1017.5
20260904164556 96 307 3.0 10.0 0.00 0.00 0.00 48 1017.6
20260904164053 95 304 1.0 7.0 0.00 0.00 0.00 51 1017.7
20260904163552 94 184 1.0 6.0 0.00 0.00 0.00 53 1017.6
20260904163051 93 215 2.0 7.0 0.00 0.00 0.00 55 1017.8
20260904162551 93 232 2.0 7.0 0.00 0.00 0.00 52 1017.7
20260904162051 94 249 2.0 8.0 0.00 0.00 0.00 51 1017.7
20260904161549 94 344 2.0 7.0 0.00 0.00 0.00 53 1017.7
20260904161048 94 168 1.0 4.0 0.00 0.00 0.00 57 1017.7
20260904160649 94 65 1.0 3.0 0.00 0.00 0.00 52 1017.6
20260904160056 93 11 1.0 8.0 0.00 0.00 0.00 58 1017.6
20260904155554 93 264 2.0 8.0 0.00 0.00 0.00 55 1017.6
20260904155054 93 329 2.0 7.0 0.00 0.00 0.00 55 1017.6
20260904154553 93 257 1.0 10.0 0.00 0.00 0.00 57 1017.7
20260904154051 93 301 3.0 10.0 0.00 0.00 0.00 56 1017.7
20260904153550 92 320 2.0 8.0 0.00 0.00 0.00 55 1017.8
20260904153056 93 15 2.0 8.0 0.00 0.00 0.00 56 1017.8
20260904152546 93 291 2.0 7.0 0.00 0.00 0.00 57 1017.8
20260904152045 92 201 1.0 8.0 0.00 0.00 0.00 58 1017.9
20260904151548 92 321 4.0 14.0 0.00 0.00 0.00 57 1017.8
20260904151043 91 298 5.0 14.0 0.00 0.00 0.00 60 1017.8
20260904150642 92 273 6.0 11.0 0.00 0.00 0.00 58 1017.8
20260904150056 91 292 4.0 9.0 0.00 0.00 0.00 60 1017.7
20260904145553 91 355 2.0 9.0 0.00 0.00 0.00 61 1017.6
20260904145052 90 63 2.0 5.0 0.00 0.00 0.00 63 1017.7
20260904144553 90 221 2.0 6.0 0.00 0.00 0.00 63 1017.6
20260904144048 89 217 2.0 6.0 0.00 0.00 0.00 64 1017.7
20260904143551 89 265 1.0 5.0 0.00 0.00 0.00 64 1017.8
20260904143046 89 289 1.0 9.0 0.00 0.00 0.00 66 1017.6
20260904142544 88 291 3.0 9.0 0.00 0.00 0.00 66 1017.6
20260904142043 88 281 2.0 5.0 0.00 0.00 0.00 67 1017.6
20260904141542 87 304 0.0 4.0 0.00 0.00 0.00 69 1017.7
20260904141040 87 250 1.0 11.0 0.00 0.00 0.00 70 1017.6
20260904140502 86 311 4.0 11.0 0.00 0.00 0.00 69 1017.6
20260904140001 85 163 2.0 7.0 0.00 0.00 0.00 72 1017.6
20260904135602 85 309 1.0 7.0 0.00 0.00 0.00 74 1017.6
20260904135058 84 291 2.0 9.0 0.00 0.00 0.00 73 1017.6
20260904134604 83 335 2.0 9.0 0.00 0.00 0.00 77 1017.6
20260904134055 81 303 1.0 3.0 0.00 0.00 0.00 81 1017.7
20260904133554 78 37 0.0 5.0 0.00 0.00 0.00 88 1017.7
20260904133053 75 181 1.0 5.0 0.00 0.00 0.00 94 1017.7
20260904132552 73 112 0.0 3.0 0.00 0.00 0.00 95 1017.8